Terug naar catalogus

STARLINK-5239

ActiefCommunicatieVLEO
NORAD 54183·PAYLOAD·🇺🇸 United States

Gelanceerd Oct 28, 2022 vanaf Vandenberg Space Force Base

Loading…

Volgende Passages (komende 24 uur)

TLE

VersSource: CelesTrak SupGP

Epoch: Sep 15, 2026, 01:47 UTC

1 54183C 22141AC  26258.07479167 -.00022944  00000+0 -67799-3 0  2586
2 54183  53.1578 219.1894 0001284  87.0883 126.6684 15.34396704    11

Volg STARLINK-5239 in realtime met AllMySat

Download on the App Store